GFSNGP_prec_cloud_129.txt.gz
Cloud_Cover
100 84 99 100 100 100 100 100 100 100 66 100 100 100 100 100 100 100 100 100 100 98 80 94 19 18 37 2 26 44 7 5 19 35 89 100 68 98 100 100 100 100 100 86
6 100 100 100 100 100 100 100 100 100 88 100 100 100 100 100 100 100 100 100 100 94 100 87 100 41 94 32 7 20 38 35 18 20 33 100 81 18 47 25 96 100 77 100
100 80 17 98 100 91 93 100 100 100 89 98 83 98 91 100 100 100 100 100 100 100 100 100 100 100 100 100 100 18 29 43 79 75 35 26 54 6 42 68 99 7 41 69
5 34 100 100 16 1 44 64 70 86 97 100 91 100 100 89 100 100 100 100 100 100 100 100 100 100 100 100 100 98 94 91 98 96 27 28 95 92 42 88 63 77 99 48
4 20 51 97 60 23 4 4 1 5 100 10 100 100 100 100 100 98 98 100 100 100 100 100 100 100 100 100 100 100 99 100 98 87 66 52 39 78 65 58 100 89 74 36
5 4 77 100 39 0 0 0 0 13 9 32 19 68 97 100 100 100 100 100 99 100 100 100 100 100 100 100 100 99 100 100 100 99 61 78 33 37 89 80 20 75 99 94
4 23 12 99 34 0 0 1 0 68 78 96 72 10 100 100 100 100 100 100 92 100 100 100 100 100 100 100 97 99 100 100 97 99 100 100 100 87 94 100 100 100 100 100
37 3 30 18 1 2 0 0 1 84 100 100 3 5 57 100 100 100 100 100 100 100 100 100 100 100 100 99 100 100 100 100 100 100 99 100 96 94 100 100 99 100 100 100
38 100 8 2 0 0 0 0 0 1 0 7 8 75 10 100 100 100 100 100 100 100 100 100 100 100 100 100 100 100 100 100 100 100 100 100 100 100 97 80 73 98 100 100
0 0 12 7 1 0 0 0 0 5 3 1 5 8 92 100 100 100 64 100 100 100 100 100 100 100 100 100 100 100 100 100 100 100 100 100 85 87 98 97 100 91 96 99
5 4 5 5 3 4 3 0 1 22 44 74 25 21 73 100 100 100 99 90 100 100 100 100 100 97 100 100 100 100 100 100 100 100 100 100 98 100 96 99 100 97 100 84
6 98 41 93 60 6 0 0 0 21 42 33 16 70 95 100 100 100 100 100 100 100 91 100 100 100 100 100 99 99 100 100 100 100 100 100 100 97 99 100 100 100 100 83
5 5 74 72 100 3 4 2 17 46 9 0 2 5 19 100 100 100 100 100 100 100 99 14 100 100 100 100 100 100 65 100 100 100 100 100 100 100 84 93 100 100 100 100
5 79 32 5 84 12 17 7 14 18 0 0 0 5 45 100 100 100 100 100 100 100 60 95 64 100 100 100 100 100 100 98 42 74 97 95 100 100 100 85 89 100 100 100
42 75 54 61 24 67 87 11 98 2 0 0 0 0 60 71 82 100 100 100 100 100 100 100 98 65 46 50 20 87 94 100 100 100 100 100 100 100 100 100 100 28 32 89
88 83 32 14 46 81 18 91 6 0 5 5 0 0 2 57 64 100 100 100 100 100 100 100 100 100 100 100 37 2 0 0 1 2 52 100 100 98 95 90 63 100 100 74
64 5 5 5 100 97 34 7 5 93 92 52 87 87 59 95 97 62 43 100 100 80 13 81 100 100 99 6 5 4 0 0 0 0 0 0 6 95 74 100 100 100 100 100
5 5 5 5 100 100 100 98 100 100 100 100 100 100 100 100 100 100 100 100 53 27 76 38 26 77 50 34 5 6 5 1 0 0 0 0 0 0 0 0 7 55 75 65
2 5 4 4 82 100 100 100 99 57 54 100 100 100 100 100 100 100 100 100 100 100 100 100 90 75 62 44 14 4 20 51 55 10 1 0 0 0 20 24 35 29 11 11
4 4 4 4 30 96 89 35 17 100 99 99 94 90 100 100 100 100 100 100 100 98 52 73 56 24 5 43 5 0 35 79 44 41 80 40 5 8 4 5 7 50 61 56
0 0 0 4 5 22 35 43 77 100 100 100 100 100 100 100 100 100 96 94 41 6 5 5 4 9 54 83 74 32 31 16 72 98 98 87 22 7 5 52 86 100 100 100
0 0 4 5 5 5 5 5 5 5 18 55 66 96 100 96 100 100 100 99 92 63 4 1 1 8 6 0 2 5 57 100 100 58 100 95 100 100 100 100 100 100 70 95
0 4 0 4 5 7 5 13 28 5 5 5 3 4 12 26 52 56 59 33 36 100 7 11 17 5 4 1 5 5 4 5 15 75 72 92 97 93 100 100 81 17 100 88
5 5 5 5 0 5 4 5 6 7 6 4 0 1 4 3 2 13 5 32 60 5 0 2 1 5 5 5 5 0 3 5 0 0 0 28 3 6 38 88 25 14 9 4
5 5 5 14 6 2 1 26 5 74 34 5 26 12 10 5 8 7 10 9 1 2 2 3 5 5 5 5 5 5 5 5 0 0 0 0 1 5 5 9 23 5 5 5
6 6 7 5 10 24 5 5 5 6 8 6 5 5 5 5 14 18 5 6 5 5 5 5 5 5 5 9 5 5 5 5 5 2 4 6 14 10 10 3 1 4 5 5
89 19 40 42 34 40 21 5 5 18 30 44 63 37 37 6 5 5 12 89 26 33 53 66 78 86 96 97 97 97 89 76 5 3 5 5 4 5 5 5 5 4 1 0

GFSNGP_prec_cloud_132.txt.gz
Cloud_Cover
40 76 15 98 21 100 100 100 44 73 88 90 100 99 95 100 100 100 95 100 100 100 100 72 100 80 4 15 50 100 77 33 0 0 0 1 4 61 100 100 100 88 29 9
0 2 5 100 82 95 100 100 100 54 90 37 100 100 100 100 100 100 100 100 100 100 100 100 100 95 5 5 81 39 0 60 100 100 5 5 24 31 5 36 90 100 100 100
10 98 100 5 98 100 100 100 100 100 6 1 58 100 100 100 100 100 100 100 100 100 100 100 100 100 100 26 41 5 2 2 6 0 1 5 43 90 5 14 5 5 18 31
1 1 19 95 84 100 100 100 13 44 84 7 84 100 100 100 100 100 91 100 100 100 100 100 100 100 97 100 100 82 12 26 95 82 10 4 8 16 9 7 5 68 5 49
0 3 2 7 99 100 100 100 13 66 93 89 100 100 100 100 100 100 100 100 100 100 100 100 100 100 100 100 100 100 100 100 90 57 83 80 86 30 26 22 17 95 38 6
1 1 5 99 63 5 92 100 5 76 100 15 92 100 100 100 100 100 100 100 100 100 100 100 100 100 100 100 100 100 100 100 100 100 28 89 100 100 100 52 40 60 100 100
4 4 2 8 5 0 0 2 16 98 100 62 17 100 100 82 100 100 100 100 100 100 100 100 100 90 97 100 98 100 98 46 50 80 100 100 100 98 100 95 99 100 100 100
39 11 29 4 2 0 0 0 0 0 87 96 100 94 100 100 100 74 100 100 100 100 100 100 100 100 100 100 100 100 100 100 100 98 100 92 99 100 100 100 100 100 100 100
11 83 4 43 13 4 0 0 0 0 0 83 50 100 100 100 100 100 100 100 100 100 100 100 100 100 100 100 100 100 100 99 100 100 100 100 99 100 100 99 100 71 94 100
5 1 4 5 13 2 0 0 0 0 4 92 90 100 100 100 100 100 94 100 100 100 100 100 100 100 100 100 100 100 99 99 100 100 99 80 100 100 100 98 100 90 88 72
5 3 1 0 1 5 0 1 0 1 58 1 100 100 100 100 100 93 69 95 99 100 100 100 100 100 100 100 100 99 100 100 100 100 100 100 100 92 94 95 99 99 94 100
5 5 62 6 15 24 57 91 4 6 100 18 74 100 100 100 100 91 98 91 90 100 100 100 100 100 100 100 100 100 100 100 100 100 100 100 100 100 89 85 98 96 100 93
0 0 0 3 70 99 100 100 99 71 30 97 66 56 100 100 100 100 100 97 45 100 100 100 100 100 100 100 100 100 100 100 100 100 100 100 100 64 100 100 100 100 100 100
5 2 3 5 66 96 100 100 100 66 98 41 52 38 5 11 19 46 100 85 53 86 6 100 99 98 100 100 100 100 100 100 100 100 80 39 100 100 100 100 100 100 100 100
4 5 5 100 100 90 61 73 3 70 57 92 42 17 9 20 81 57 21 5 92 99 100 44 100 100 100 92 100 100 100 100 100 100 100 98 100 94 31 100 100 100 100 100
5 5 73 93 100 100 100 100 95 21 19 14 0 23 25 7 10 24 26 5 13 100 100 100 100 100 100 91 4 6 100 100 100 100 100 100 100 100 100 100 93 100 100 100
5 4 65 9 98 100 100 100 82 76 30 22 0 3 0 30 2 30 100 78 99 69 100 100 100 100 100 100 100 100 100 96 89 100 100 100 100 97 100 98 97 94 100 100
2 5 3 2 5 82 91 0 8 68 57 100 70 63 57 8 5 8 17 91 100 100 100 100 100 100 100 100 100 99 100 100 100 86 52 28 58 74 92 52 12 42 12 42
4 2 5 4 47 100 100 4 100 100 100 100 91 100 100 100 100 60 100 84 73 100 100 98 100 100 100 90 100 100 100 100 100 100 100 100 100 90 24 34 32 51 30 13
4 3 3 3 8 7 4 13 90 14 10 97 100 100 100 100 80 100 100 100 100 100 100 100 100 96 78 61 48 21 30 91 100 92 99 92 89 100 74 8 6 32 38 17
0 1 0 1 8 99 15 4 50 97 100 96 98 65 94 100 100 100 100 100 100 100 100 100 100 100 100 100 100 100 100 100 98 98 100 13 98 6 93 98 100 100 93 46
0 0 0 0 4 33 60 11 2 4 4 54 96 100 100 100 100 94 88 88 100 100 89 59 59 51 26 8 85 93 86 86 71 22 48 99 74 98 44 20 16 16 17 99
0 0 0 5 5 5 9 3 5 3 1 0 1 2 5 82 99 72 69 16 19 69 12 100 37 0 0 0 0 0 0 21 75 100 100 19 30 56 4 41 59 57 100 100
5 0 0 0 5 5 4 5 67 27 24 0 0 0 12 93 32 75 46 97 46 1 5 78 9 0 0 0 0 0 2 0 5 5 8 66 100 95 100 100 99 95 100 42
88 46 6 4 0 0 1 2 0 95 100 94 5 13 4 4 20 93 99 23 14 22 4 2 2 0 4 5 3 0 3 1 5 4 5 0 1 4 3 51 97 90 7 4
100 100 100 87 5 5 5 5 4 3 4 10 8 5 9 11 5 5 6 30 8 5 9 6 17 5 5 5 5 5 22 26 5 5 26 29 5 5 5 17 20 5 3 4
100 100 100 100 100 86 57 5 5 5 5 38 66 5 6 6 20 17 5 69 7 4 8 16 15 69 52 34 22 72 100 100 98 54 96 99 67 12 44 5 5 5 5 5

GFSNGP_prec_cloud_135.txt.gz
Cloud_Cover
1 60 4 4 1 79 96 5 100 89 5 100 100 100 100 100 100 100 100 87 95 100 96 96 80 70 100 58 0 42 74 8 0 0 0 4 5 5 3 0 5 5 5 9
0 2 13 2 72 15 90 43 5 19 56 100 100 100 100 100 100 100 100 100 100 100 100 100 98 70 62 97 100 100 100 100 25 0 0 4 5 5 5 3 61 32 5 5
0 12 2 45 93 83 86 100 87 6 32 9 100 100 100 100 100 100 100 100 100 100 100 100 100 100 100 100 100 100 100 100 90 62 33 0 0 0 5 7 38 58 100 100
0 0 0 5 100 100 86 98 18 62 37 8 74 100 100 99 100 100 100 100 100 100 100 100 100 100 100 100 100 100 100 100 100 5 3 6 4 12 5 74 100 100 100 92
1 0 0 1 92 68 5 4 75 1 5 0 1 100 100 100 92 97 100 100 100 100 100 100 100 100 100 100 100 100 94 100 71 69 40 17 12 5 78 100 100 100 100 96
5 0 0 5 13 98 36 6 100 100 16 58 0 1 61 100 81 97 100 100 100 100 100 100 100 100 100 100 100 100 93 100 100 100 67 24 91 31 79 100 100 100 100 100
5 1 0 4 5 5 1 1 16 100 81 0 0 0 1 7 86 100 96 98 100 100 100 100 100 100 100 100 100 100 100 100 100 100 100 100 100 100 77 88 99 100 100 100
82 21 73 24 17 10 0 0 0 0 5 3 0 0 5 30 75 100 92 99 99 100 100 100 100 100 100 100 100 100 100 100 100 100 100 100 100 87 98 94 100 100 100 100
5 34 5 0 0 0 0 0 3 0 0 1 2 3 96 62 100 62 54 92 63 100 100 100 100 100 100 100 100 100 100 100 100 93 96 92 83 100 85 92 64 92 94 100
13 24 6 1 0 0 0 0 0 0 0 0 0 0 2 99 93 21 32 100 100 100 100 100 97 100 100 100 100 100 100 100 100 100 100 100 100 100 100 93 88 81 86 39
70 60 5 2 0 0 1 4 0 0 0 0 1 0 0 14 100 100 55 100 100 100 98 99 97 100 100 100 100 100 100 100 100 100 100 100 99 94 95 98 100 97 100 100
100 10 0 0 0 0 2 5 3 0 0 58 21 57 1 2 0 9 100 100 99 100 100 77 100 100 100 100 100 100 100 100 100 100 100 100 100 100 90 84 100 98 93 56
99 5 0 0 0 0 0 0 0 1 78 100 59 100 100 39 0 0 41 100 100 100 100 88 88 100 100 100 100 100 100 100 100 100 100 100 100 100 100 100 100 100 94 92
11 5 3 0 0 0 1 4 1 79 100 100 100 25 1 0 0 92 100 99 100 85 76 7 90 71 100 100 100 100 100 100 100 100 100 100 100 100 100 100 100 100 89 37
19 5 0 0 1 3 5 72 40 100 100 100 100 100 5 5 0 76 100 87 1 26 75 26 28 25 69 71 99 100 100 100 100 95 100 100 100 100 100 100 100 100 100 81
5 4 5 0 5 5 23 9 98 100 100 100 100 10 73 3 38 99 44 5 5 5 8 100 100 21 5 36 100 94 100 100 100 100 100 100 100 100 100 100 100 100 100 100
5 0 3 0 38 36 55 100 100 100 12 7 4 0 0 0 0 0 0 5 27 6 5 81 100 100 14 5 100 100 100 100 100 100 100 100 100 100 100 100 100 100 100 100
0 1 0 0 85 30 38 11 69 68 79 1 0 0 1 3 2 0 83 45 100 100 95 100 100 100 100 98 64 100 100 97 100 100 100 100 100 100 100 94 100 100 100 100
0 0 1 2 100 100 100 99 5 24 58 2 9 92 100 90 41 6 83 87 96 100 100 100 100 100 100 100 100 100 100 100 100 100 100 100 100 99 57 5 3 21 5 8
0 0 1 0 6 100 100 100 96 9 8 6 93 100 100 100 100 100 97 100 100 98 100 100 100 100 100 100 100 100 100 100 100 100 100 59 91 100 98 24 8 37 81 83
0 0 1 0 0 0 97 1 3 54 5 98 93 97 100 100 100 100 100 100 100 100 100 100 100 100 100 100 100 100 100 100 100 100 100 98 99 80 90 90 72 74 31 95
0 0 0 0 0 0 58 30 0 0 1 22 22 98 42 97 100 100 100 100 100 80 100 100 100 86 60 69 98 100 97 94 87 91 85 51 28 82 41 6 22 15 35 25
5 2 0 0 0 0 53 86 39 0 0 0 0 2 32 92 98 93 62 48 47 98 97 67 48 16 5 0 0 4 64 8 0 8 18 6 7 100 24 28 71 16 34 68
5 33 93 77 5 4 2 4 0 0 0 0 0 0 0 0 0 10 1 98 6 92 2 0 0 95 2 0 0 0 0 5 5 5 5 5 11 100 98 51 37 47 14 47
57 75 100 100 100 86 6 13 5 1 0 0 0 4 0 0 4 1 86 98 34 22 43 0 0 2 3 0 0 0 1 10 15 11 10 10 4 29 48 9 5 5 6 28
60 72 93 100 100 97 67 99 96 23 5 5 16 13 1 2 4 5 10 98 92 76 2 3 5 6 4 4 20 29 98 35 71 94 47 8 13 53 40 6 64 100 100 93
96 77 93 93 92 32 16 88 100 100 41 5 11 5 5 5 5 3 1 0 2 16 26 9 71 67 30 25 11 25 29 7 7 22 44 90 49 5 82 17 5 37 27 6

GFSNGP_prec_cloud_138.txt.gz
Cloud_Cover
0 27 5 0 0 0 0 0 2 5 23 98 5 100 100 100 100 100 100 100 100 100 100 100 90 34 40 47 65 22 4 4 5 5 11 5 6 5 31 100 82 68 5 5
0 1 5 0 0 0 3 5 5 5 100 100 73 100 100 100 100 94 100 89 100 100 100 100 100 100 100 100 75 61 84 21 39 8 5 5 5 7 52 5 5 47 7 51
0 0 0 0 3 4 66 98 15 69 100 100 100 100 100 100 100 100 99 98 95 100 100 100 100 100 100 100 74 80 100 79 63 73 76 58 68 3 5 9 5 5 3 13
0 0 0 35 7 5 5 1 20 18 100 100 88 100 100 100 100 100 99 96 100 97 89 100 100 93 100 100 100 100 100 100 84 100 100 100 100 100 51 20 5 5 32 71
4 0 0 1 19 0 4 0 0 0 50 100 71 100 100 100 100 100 100 86 94 100 100 76 28 98 91 100 100 100 100 100 100 100 100 100 100 100 100 100 98 100 100 100
4 0 0 0 0 10 98 63 5 5 5 55 100 98 100 100 100 100 100 97 100 99 90 93 100 65 74 100 100 100 100 100 100 100 100 100 100 100 100 100 100 100 100 100
5 5 1 1 0 8 44 3 0 0 0 30 6 76 100 100 100 100 100 100 88 99 100 100 100 88 100 100 100 100 100 100 100 100 100 100 100 100 100 100 100 100 100 100
5 76 32 2 5 0 0 0 0 0 0 0 74 28 62 100 100 100 100 78 100 89 100 100 100 100 100 100 100 100 100 100 100 100 100 100 100 100 100 100 100 100 100 100
20 90 6 5 5 5 4 0 0 0 0 0 1 15 15 100 100 100 100 100 100 100 100 100 100 100 100 100 100 100 100 100 100 100 100 100 100 100 100 100 100 100 100 100
100 78 100 57 5 5 0 0 0 0 0 0 0 0 2 1 94 23 30 92 100 100 100 100 100 100 100 100 100 100 100 100 100 100 100 93 100 100 100 100 100 100 100 100
100 79 65 34 5 2 0 0 0 0 0 0 0 1 5 70 0 42 100 88 98 100 100 100 100 100 100 100 100 100 100 100 100 100 100 100 100 100 100 100 100 100 100 100
100 100 68 6 5 5 2 0 0 0 1 0 0 0 69 92 90 3 8 50 100 100 100 100 100 100 100 100 100 100 100 100 100 100 100 100 100 100 100 100 100 100 100 100
100 63 88 25 5 2 0 0 0 0 0 0 0 2 5 100 100 100 100 5 99 100 100 87 100 100 100 100 100 100 100 100 100 100 100 100 100 100 100 100 100 100 100 100
95 76 65 26 5 1 0 0 0 3 0 0 0 32 17 99 100 96 73 14 100 100 98 32 23 42 96 84 100 100 100 100 100 100 100 100 100 100 100 100 100 100 99 98
100 89 100 24 2 0 0 3 2 3 1 0 79 100 100 100 100 40 4 6 100 95 7 0 5 7 19 71 15 95 100 100 100 100 100 100 100 100 100 100 100 100 100 100
100 100 55 2 1 0 0 3 5 30 42 93 100 100 100 100 100 92 81 85 69 4 0 0 0 56 93 6 62 16 34 100 100 100 100 100 100 100 100 100 100 100 100 100
100 57 5 0 0 0 28 2 100 100 82 100 100 100 100 95 21 38 65 7 5 2 0 0 5 1 22 100 58 22 48 68 98 100 100 100 100 100 100 100 100 100 100 100
63 5 2 0 0 1 2 58 100 100 100 86 76 85 80 5 6 11 5 0 0 2 0 4 76 12 8 100 39 5 5 93 100 100 100 100 100 100 100 100 100 100 100 100
12 3 0 0 0 47 11 28 48 61 100 85 51 63 39 40 0 0 0 19 95 50 14 80 98 91 100 100 100 100 54 36 100 100 100 84 86 94 100 100 100 100 95 100
5 5 0 0 0 0 11 20 98 48 34 1 0 2 0 0 2 1 56 12 9 18 84 98 100 100 100 100 100 100 100 100 100 88 98 67 62 82 66 67 100 100 100 91
5 1 0 0 0 0 0 0 0 0 0 0 6 0 12 28 22 52 60 58 10 96 100 90 100 100 100 100 100 100 100 100 100 100 100 100 100 97 71 90 44 65 100 99
5 5 7 5 1 0 0 0 0 0 0 0 0 4 5 37 5 14 46 82 100 100 100 100 95 100 100 100 100 100 100 100 100 97 75 70 54 27 42 82 99 54 28 55
54 5 90 98 74 8 3 1 1 0 0 0 0 0 0 3 90 100 100 100 80 87 100 100 100 100 72 5 12 12 22 16 10 4 5 10 39 15 20 94 97 10 87 97
5 16 100 100 100 100 71 5 40 20 0 0 0 0 0 0 0 0 0 1 14 0 0 3 0 0 2 0 0 0 0 0 0 5 5 5 5 5 5 6 96 99 78 5
88 13 5 84 100 100 97 22 83 100 100 5 0 5 0 0 0 0 0 1 13 3 40 11 42 36 3 100 3 0 0 2 5 6 12 46 34 38 76 27 38 76 100 46
87 77 100 100 89 100 100 58 46 96 100 84 5 5 19 2 2 0 0 4 100 98 2 43 4 1 5 4 1 2 3 14 64 94 77 38 6 6 21 5 5 14 67 64
100 100 100 100 99 100 100 100 97 66 43 60 45 7 6 89 22 4 5 5 5 24 6 5 4 3 3 5 5 5 82 83 85 94 100 47 41 74 70 5 5 5 42 100

GFSNGP_prec_cloud_141.txt.gz
Cloud_Cover
0 0 0 0 0 0 0 0 0 1 0 0 0 16 8 56 100 100 100 100 100 98 100 95 100 74 28 87 88 15 100 48 5 5 5 6 78 38 81 82 84 99 92 100
5 1 0 0 1 0 0 0 0 0 2 0 1 5 98 100 100 100 100 100 100 100 100 100 100 51 100 100 96 59 93 25 3 0 3 5 5 15 90 100 100 84 86 97
5 3 0 0 0 0 0 0 0 0 10 5 5 20 100 100 100 100 100 100 100 99 100 100 100 100 52 100 96 98 100 100 100 98 41 6 5 7 5 7 52 38 35 13
5 1 0 3 1 3 4 11 4 0 9 53 47 5 99 100 100 100 100 100 100 98 100 100 100 100 100 100 97 100 100 100 100 100 100 95 100 66 79 45 22 30 42 66
5 5 2 5 1 4 5 3 4 4 0 0 53 44 100 100 100 100 100 100 100 100 97 100 100 100 97 100 98 100 100 100 100 100 100 100 100 100 100 100 100 100 100 100
60 5 5 4 5 0 0 4 5 17 5 5 1 5 100 100 100 100 100 100 100 100 100 100 100 100 82 97 94 96 100 100 100 100 100 100 100 100 100 100 100 100 100 100
5 5 5 0 5 89 75 10 5 5 5 0 0 0 13 100 100 100 100 100 100 100 100 100 100 100 100 100 98 100 100 100 100 100 100 100 100 100 100 100 100 100 100 100
24 15 5 5 5 4 0 0 2 1 0 0 0 0 0 100 100 100 100 100 100 100 100 100 100 100 100 100 100 100 100 96 100 100 100 100 100 100 100 100 100 100 100 100
62 66 36 62 79 5 0 0 0 0 0 0 0 0 0 81 100 100 100 100 100 100 100 100 100 100 100 100 100 100 100 100 100 100 100 100 100 100 100 100 100 100 100 100
42 67 100 100 54 5 5 4 2 0 0 0 0 0 0 0 18 100 100 100 100 100 100 100 100 100 100 100 100 100 100 100 100 100 100 100 100 100 100 100 100 100 100 100
100 100 100 93 8 22 85 6 5 0 0 0 0 0 0 0 0 100 100 100 100 100 100 100 100 100 100 100 100 100 100 100 100 100 100 100 100 100 100 100 100 100 100 100
100 100 95 68 77 100 62 5 1 0 0 0 0 0 0 0 2 99 100 100 100 100 100 100 100 100 100 100 100 100 100 100 100 100 100 100 100 100 100 100 100 100 100 100
100 100 100 100 100 99 11 3 0 0 0 0 0 2 4 4 0 0 100 100 100 100 73 100 100 100 100 100 100 100 100 100 100 100 100 100 100 100 100 100 100 100 100 100
100 100 99 100 50 20 2 1 5 4 0 0 0 0 0 0 1 4 20 24 89 100 100 23 58 53 90 100 100 100 100 100 100 100 100 100 100 100 100 100 100 100 100 100
100 98 100 92 40 5 4 5 0 0 0 3 5 0 0 2 79 100 98 100 82 95 53 100 100 100 100 100 98 100 99 100 100 100 100 98 100 100 100 100 100 100 100 100
72 63 89 64 5 5 3 0 0 0 5 5 3 28 94 100 97 100 100 100 100 99 94 12 100 100 100 100 100 100 98 100 100 100 100 100 100 100 100 100 100 100 100 99
100 100 61 17 5 0 0 0 0 0 3 5 91 100 100 100 100 100 100 100 100 100 77 5 2 8 5 5 37 100 100 49 79 100 97 100 100 100 98 100 100 100 100 100
100 99 12 6 5 4 0 0 0 2 7 85 100 100 100 100 100 100 100 96 94 96 93 10 0 0 0 0 0 12 4 55 98 70 78 13 93 100 100 100 100 100 100 100
93 36 6 5 2 0 0 0 0 3 4 7 20 11 12 96 100 100 100 90 55 5 2 2 0 1 4 5 5 43 98 28 97 100 100 99 97 100 100 100 100 100 100 100
100 94 59 5 0 0 0 0 0 0 0 0 1 0 0 0 3 4 7 2 4 5 4 4 5 12 38 75 100 98 94 100 86 24 74 100 100 100 98 62 90 98 100 100
45 70 9 5 0 0 0 0 0 0 0 0 0 0 0 0 2 4 60 5 2 2 1 5 79 99 100 100 100 100 100 100 100 100 99 100 100 100 100 100 100 100 87 40
5 7 5 5 5 0 1 2 3 0 0 0 0 0 0 0 0 0 2 1 5 3 30 22 99 100 100 100 100 100 100 100 100 100 100 100 100 100 100 100 100 100 100 65
16 5 5 4 88 76 29 4 13 5 3 0 0 0 0 0 0 0 5 24 37 17 51 77 100 100 100 100 100 100 100 100 100 100 99 100 100 83 63 67 66 82 33 8
91 14 6 22 5 5 93 5 7 24 68 2 0 0 0 0 0 0 0 0 0 0 4 5 11 24 17 9 5 3 2 0 0 0 0 4 5 5 5 5 5 52 99 100
57 7 5 5 5 9 70 23 10 7 24 87 2 3 5 23 1 0 0 0 0 0 2 4 0 0 0 0 0 0 0 0 0 0 3 5 5 5 6 9 5 30 100 99
100 100 77 98 93 72 62 98 80 73 31 52 58 5 7 18 84 13 0 0 0 0 14 3 30 18 0 0 0 5 1 0 0 3 5 5 5 5 5 5 5 6 23 7
57 35 64 96 100 98 100 100 100 100 100 96 19 5 5 5 5 46 46 4 4 3 86 90 2 0 0 0 0 0 4 1 5 5 9 47 38 34 17 5 5 5 5 12

GFSNGP_prec_cloud_147.txt.gz
Cloud_Cover
1 0 0 0 0 0 0 0 0 0 0 0 0 0 3 0 4 5 5 7 42 58 100 100 80 88 100 10 59 98 7 5 5 1 0 0 0 2 0 5 8 0 25 5
0 0 0 0 0 0 0 0 0 0 0 0 0 0 2 0 0 0 0 10 46 64 92 100 100 70 49 90 63 42 5 19 4 5 5 5 1 23 0 4 1 5 0 5
4 0 0 0 0 0 0 0 0 0 0 0 0 0 0 1 0 0 0 0 26 30 50 96 100 100 70 55 58 72 71 62 89 73 58 43 18 12 5 3 4 5 9 65
5 2 1 2 3 0 0 0 0 0 0 0 5 3 4 0 0 1 1 0 0 54 21 78 100 99 99 60 50 38 38 40 86 55 65 83 86 48 52 29 27 15 9 31
5 5 13 0 0 0 0 0 0 0 5 5 5 0 0 0 0 0 0 0 0 22 37 81 99 100 98 99 100 100 68 30 88 100 70 75 76 64 43 33 91 93 72 94
45 5 6 6 0 0 5 5 0 0 0 0 0 0 0 0 0 0 0 0 2 29 83 41 56 100 100 100 94 100 100 98 100 100 61 51 81 100 100 100 100 100 100 100
100 86 28 51 22 4 5 5 0 0 0 0 2 1 0 0 0 0 0 0 5 8 94 100 75 88 100 100 100 83 100 99 100 100 94 98 93 86 100 100 100 100 100 100
100 89 64 58 70 72 38 17 2 0 0 5 5 5 0 0 0 0 0 0 0 0 98 100 77 100 100 99 99 99 100 100 100 100 91 94 99 100 100 100 100 100 100 100
97 94 98 100 9 77 100 31 5 3 1 5 4 0 0 0 0 0 0 0 0 0 15 100 100 100 100 100 100 100 100 100 100 90 100 100 100 100 100 100 100 100 100 100
100 89 100 100 92 70 100 76 5 5 0 0 0 0 0 0 0 0 0 0 0 0 9 100 100 96 100 100 100 100 100 100 100 100 100 100 100 100 100 100 100 100 100 100
89 96 98 100 98 100 100 100 5 5 5 0 0 0 0 0 0 0 0 9 0 0 0 37 100 100 100 100 100 100 100 100 100 100 100 100 100 100 100 100 100 100 100 100
100 100 100 100 100 100 100 100 38 5 5 5 0 0 0 0 0 2 4 0 1 0 0 3 66 100 99 100 100 100 100 100 100 100 100 100 100 100 100 100 100 100 100 100
100 96 75 66 54 100 100 100 89 7 5 5 5 3 0 0 0 0 7 26 2 0 0 0 33 100 100 100 100 100 100 100 100 100 100 100 100 100 100 100 100 100 100 100
100 100 85 98 66 97 100 66 64 88 84 20 5 5 0 0 4 0 0 3 29 1 0 0 3 84 100 100 100 100 100 96 100 100 100 100 100 100 100 100 100 100 100 100
100 92 91 100 100 98 100 39 90 88 70 94 62 5 4 2 0 0 1 42 4 1 0 0 0 64 87 100 100 100 100 100 100 100 100 100 100 100 100 100 100 100 100 100
94 93 100 100 76 94 100 100 100 100 100 46 32 5 2 0 0 0 0 17 8 5 67 5 5 5 5 100 100 100 100 100 100 100 100 100 100 100 100 100 100 100 100 100
100 100 100 98 100 100 100 100 100 86 53 11 6 5 0 0 0 0 0 0 5 30 89 98 83 97 100 58 37 100 100 100 100 100 99 100 100 100 100 100 87 91 84 82
100 100 100 100 100 100 100 88 83 93 96 5 4 0 0 0 0 0 0 0 12 32 55 90 92 100 100 100 100 100 97 94 97 100 100 100 100 100 100 94 50 58 83 95
31 98 81 86 100 100 100 100 100 61 5 0 0 0 0 0 0 0 0 0 1 1 5 94 100 100 100 100 100 100 100 100 100 34 100 100 100 100 100 100 100 100 49 57
5 5 30 52 98 100 100 98 17 5 2 0 0 0 0 0 0 0 0 0 0 0 0 1 8 97 100 99 89 92 100 100 100 98 96 97 85 100 100 100 100 100 100 100
5 5 40 90 69 100 90 5 5 5 0 0 0 0 0 0 0 0 0 0 2 0 0 0 0 91 100 100 92 56 5 5 5 5 7 10 6 8 12 56 88 100 100 100
5 7 82 82 99 58 8 45 5 0 2 0 0 0 0 0 0 0 0 0 4 0 0 1 0 2 60 76 75 60 35 5 5 5 32 36 38 85 63 66 72 99 100 100
68 95 100 100 100 66 95 18 5 5 0 0 0 0 0 0 0 0 0 0 0 7 0 0 1 3 3 5 3 1 3 5 5 5 14 26 31 53 75 94 85 97 100 100
100 84 100 100 100 100 77 60 8 5 2 0 0 0 0 0 0 0 0 0 0 3 0 0 1 4 5 25 46 89 99 100 98 88 87 95 99 100 100 100 98 100 95 100
99 97 100 100 100 49 11 58 17 5 5 5 3 5 5 5 1 0 0 0 0 0 0 0 0 0 2 0 0 0 0 0 2 18 67 49 82 79 78 86 77 48 17 5
100 100 100 100 83 64 29 5 24 6 5 38 64 76 61 24 12 6 2 0 3 4 0 0 0 0 0 0 0 0 0 0 0 0 1 0 0 0 0 1 5 5 5 5
100 100 100 74 100 100 37 23 9 7 70 99 100 100 100 100 100 65 53 64 10 5 5 5 4 3 0 0 3 5 4 2 0 0 0 0 0 0 0 2 5 5 4 5

GFSNGP_prec_cloud_150.txt.gz
Cloud_Cover
99 40 0 0 1 0 0 0 2 71 9 5 0 0 0 0 0 0 0 2 5 24 100 99 57 80 72 80 21 6 5 5 0 0 8 6 2 5 10 0 0 0 0 6
100 100 20 0 0 0 0 0 0 0 2 5 0 0 0 0 0 0 2 0 3 5 36 100 100 100 100 90 50 77 8 6 16 18 12 18 16 10 5 4 0 0 1 27
100 68 87 64 0 0 0 0 0 0 5 0 0 0 0 0 0 0 0 0 0 2 5 99 100 98 100 100 100 98 94 70 80 80 100 100 90 92 48 22 12 5 1 4
100 100 61 100 88 0 0 0 0 0 0 0 0 0 0 0 0 0 0 0 0 0 9 94 100 100 96 99 100 90 89 98 100 98 96 96 100 99 100 71 59 47 28 4
100 96 100 85 99 67 4 0 0 0 0 0 0 0 0 0 0 0 0 0 0 0 27 97 100 100 100 94 68 76 63 57 95 86 67 97 77 90 58 30 60 100 73 60
100 100 100 97 39 73 5 32 0 0 0 0 2 2 0 0 0 0 0 0 0 0 13 50 100 67 85 100 100 94 99 46 76 80 78 42 38 63 82 25 99 100 96 100
100 100 100 96 35 6 38 13 0 0 0 0 4 8 16 0 0 0 0 0 0 0 0 8 48 93 93 91 100 100 99 100 100 100 86 73 35 46 100 81 75 82 100 100
100 100 100 99 18 49 6 61 4 0 0 0 0 5 3 0 0 0 0 0 0 0 0 2 69 97 67 91 100 100 100 100 100 100 100 100 93 100 99 100 100 100 100 100
100 100 100 100 24 88 5 5 26 1 0 5 0 1 5 1 0 0 0 0 0 0 0 4 69 93 54 100 83 100 100 100 100 100 100 100 100 100 100 100 100 100 100 100
100 100 100 100 69 35 22 8 5 23 1 5 2 1 0 0 0 0 0 0 0 0 0 0 26 99 100 97 100 100 100 100 100 100 100 100 100 100 100 100 100 100 100 100
100 100 100 96 57 59 90 60 5 16 30 5 4 0 0 0 0 0 0 0 0 0 0 0 0 81 100 96 100 100 100 100 100 100 89 100 100 100 100 100 100 100 100 100
100 100 100 100 76 25 40 93 10 7 76 45 5 4 0 0 0 0 0 0 0 0 0 0 2 47 84 91 100 100 100 100 100 100 100 100 100 100 100 100 100 100 100 100
76 98 93 98 100 74 100 84 41 51 96 100 34 5 5 0 0 2 0 0 0 0 0 0 9 60 60 100 98 100 100 100 100 100 100 100 100 100 100 100 100 100 100 99
100 100 99 100 94 35 92 100 55 29 56 98 100 80 8 5 5 5 0 0 0 5 4 18 2 68 49 98 98 100 100 100 100 100 100 100 100 100 100 100 100 100 100 100
100 99 93 100 100 53 89 100 29 88 100 100 98 36 5 5 5 1 0 0 0 16 18 25 0 70 10 40 100 99 100 95 100 100 100 100 100 100 100 100 100 100 100 100
100 100 100 100 100 97 71 75 100 100 100 100 46 9 5 5 4 0 0 0 0 1 26 10 0 86 83 33 96 94 95 100 100 100 99 100 100 100 100 100 100 100 100 100
100 96 100 100 100 100 100 100 100 100 100 95 95 88 5 0 0 0 0 0 0 33 48 9 27 20 5 55 92 93 95 76 100 100 100 100 100 100 100 100 100 100 100 100
100 93 100 100 100 100 100 100 100 100 100 98 21 0 0 0 0 0 0 0 15 22 16 59 88 63 75 77 71 92 86 68 73 79 84 71 16 92 92 100 99 100 88 100
99 100 100 100 100 100 100 100 100 100 40 5 5 2 0 0 0 0 0 0 0 1 2 32 5 0 28 72 52 34 71 92 100 99 67 60 5 4 40 91 98 98 98 100
100 100 100 100 99 100 100 98 37 37 5 5 4 5 0 0 0 0 0 0 0 0 18 0 0 0 3 7 91 100 64 99 92 91 81 96 94 77 93 90 10 94 100 100
23 5 48 97 70 96 100 64 25 9 5 5 5 0 0 0 0 0 0 0 0 0 0 0 0 0 0 0 7 84 100 20 98 100 100 100 100 100 100 97 10 5 25 82
5 6 48 96 82 100 99 82 52 37 6 5 2 0 0 0 0 0 0 0 0 0 0 0 0 0 3 0 4 38 66 100 98 54 60 91 97 89 86 50 60 54 52 76
6 89 87 80 89 100 100 95 100 49 10 5 0 0 0 0 0 0 0 0 0 7 0 0 0 1 5 3 0 2 3 3 9 26 27 23 27 64 63 20 30 66 87 82
32 93 100 100 65 99 100 100 28 5 8 5 5 0 0 0 0 0 0 0 0 0 0 0 0 0 0 0 4 3 7 22 5 3 4 5 5 44 100 100 32 96 87 55
96 83 100 100 100 100 99 98 5 5 5 5 5 5 3 2 5 0 0 0 0 0 0 0 0 0 2 0 0 0 0 0 0 0 1 2 10 42 59 86 98 100 100 100
100 100 100 100 100 100 100 80 6 14 5 5 5 5 5 5 5 44 56 6 5 2 0 0 0 0 0 0 0 3 3 0 3 7 0 43 74 23 2 0 1 8 0 15
98 100 100 100 100 100 100 30 7 55 17 5 30 5 57 75 93 100 100 92 16 5 5 5 5 5 4 2 1 2 0 4 4 38 72 20 6 8 0 0 0 0 0 5